Location: Forst
(46.9333°N, 15.4333°E)
Time: 21:57:12
(UTC+00:00)

TIANQI-6 - Visible Passes

Search period start: 24 June 2021 00:00
Search period end: 04 July 2021 00:00
Orbit: 583 x 603 km, 35.0° (Epoch: 24 June)

Date Brightness Start Highest point End Pass type
(mag) Time Alt. Az. Time Alt. Az. Time Alt. Az.
24 Jun ? 02:08:24 10° SW 02:11:18 17° S 02:14:11 10° SE visible
25 Jun ? 00:39:03 11° SE 00:39:03 11° SE 00:39:41 10° SE visible
25 Jun ? 02:15:50 10° SW 02:18:51 18° S 02:21:52 10° SE visible
26 Jun ? 00:46:17 14° SSE 00:46:17 14° SSE 00:47:52 10° SE visible
26 Jun ? 02:23:26 10° SW 02:26:24 17° S 02:29:21 10° SE visible
27 Jun ? 00:53:36 16° SSE 00:53:36 16° SSE 00:55:42 10° SE visible
28 Jun ? 01:01:03 17° SSE 01:01:03 17° SSE 01:03:21 10° SE visible
29 Jun ? 01:08:43 16° S 01:08:43 16° S 01:10:49 10° SE visible
30 Jun ? 01:16:40 14° S 01:16:40 14° S 01:18:04 10° SSE visible
03 Jul ? 20:39:56 10° SSW 20:40:08 11° SSW 20:40:08 11° SSW visible
